星链-4455 (STARLINK-4455 )

导读 | 豆包AI

STARLINK-4455是美国太空探索技术公司(SpaceX)星链(Starlink)星座中的一颗卫星,于2022年8月12日发射升空,属于星链低轨互联网星座组网卫星,主要用于为全球提供高速宽带互联网服务,星链系统通过数千颗低轨卫星组网,可覆盖偏远地区,弥补地面网络覆盖不足。

基本信息
目录编号:
53500
目录名称:
STARLINK-4455
国际标识:
2022-099AM
轨道中心:
EARTH
卫星名称:
星链-4455
卫星全名:
星链-4455 (STARLINK-4455 )
卫星状态:
在轨 (已飞行1311 天)
发射日期:
2022-08-12 UTC
国别 :
美国 (US)
星等 :
--
轨道信息
数据来源 国际轨道数据
星历时间: 2026-03-15T06:04:19+0800
8小时前
查看轨道信息
半长轴: 6927.658km
偏心率: 0.0001468
轨道倾角: 97.603°
近地点辐角 96.639°
升交点赤经 196.461°
平近点角 263.500°
近地点: 548.504km
远地点: 550.538km
周期: 95.640分钟
每日圈数: 15.056471
详细信息
固有亮度:
5
最大亮度:
2.5
卫星平台:
Starlink v1.5
覆盖范围:
全球
运营商:
太空探索技术公司
运营商所在国:
美国
制造商(研发单位):
太空探索技术公司
制造商所在国:
美国
使用方式:
暂无
卫星简介
星链(Starlink)计划是由太空探索技术公司(SpaceX)提出的一个巨型低轨卫星互联网星座项目,计划在2019年至2024年间在太空搭建由约1.2万颗卫星组成的“星链”网络,其中1584颗将部署在地球上空550千米处的近地轨道,并从2020年开始工作。该卫星仍在工作。
2D轨道图
3D轨道图
轨道高度分析图
轨道倾角分析图
轨道综合分析图
查看轨道综合分析图